H1 CPF 2 COD 2020 11 16 2 321 1 galileo214 NONE
H2 1606904 7214 41862 2020 11 15 23 59 42 2020 11 20 23 44 42 900 1 1 0 0 0 1
H5 0.5552
H9
10 0 59173  26982.000000  0   25698755.295   3684442.095  14211630.048
10 0 59173  27882.000000  0   24370811.532   4055368.202  16296120.594
10 0 59173  28782.000000  0   22902847.680   4576987.547  18177847.833
10 0 59173  29682.000000  0   21327425.580   5261312.151  19833395.822
10 0 59173  30582.000000  0   19679186.300   6114610.949  21242163.578
10 0 59173  31482.000000  0   17993795.594   7137154.698  22386621.529
10 0 59173  32382.000000  0   16306859.969   8323150.355  23252529.643
10 0 59173  33282.000000  0   14652847.252   9660867.108  23829114.528
10 0 59173  34182.000000  0   13064045.462  11132950.158  24109203.340
10 0 59173  35082.000000  0   11569592.469  12716912.563  24089312.870
10 0 59173  35982.000000  0   10194606.763  14385789.830  23769692.735
10 0 59173  36882.000000  0    8959446.462  16108936.842  23154322.156
10 0 59173  37782.000000  0    7879119.648  17852942.260  22250860.361
10 0 59173  38682.000000  0    6962864.381  19582631.893  21070551.232
10 0 59173  39582.000000  0    6213911.455  21262129.652  19628083.360
10 0 59173  40482.000000  0    5629437.207  22855942.976  17941407.231
10 0 59173  41382.000000  0    5200707.729  24330038.801  16031511.765
10 0 59173  42282.000000  0    4913409.884  25652876.398  13922162.989
10 0 59173  43182.000000  0    4748158.608  26796364.785  11639608.056
10 0 59173  44082.000000  0    4681164.477  27736714.752   9212248.277
10 0 59173  44982.000000  0    4685040.496  28455158.811   6670285.266
10 0 59173  45882.000000  0    4729722.663  28938516.543   4045344.606
10 0 59173  46782.000000  0    4783475.295  29179587.650   1370081.759
10 0 59173  47682.000000  0    4813949.447  29177360.434  -1322224.811
10 0 59173  48582.000000  0    4789261.097  28937029.217  -3998088.170
10 0 59173  49482.000000  0    4679055.108  28469820.220  -6624229.912
10 0 59173  50382.000000  0    4455521.518  27792631.439  -9167994.326
10 0 59173  51282.000000  0    4094332.156  26927497.886 -11597754.555
10 0 59173  52182.000000  0    3575468.112  25900899.029 -13883305.680
10 0 59173  53082.000000  0    2883912.092  24742930.222 -15996239.786
10 0 59173  53982.000000  0    2010183.862  23486364.134 -17910298.406
10 0 59173  54882.000000  0     950701.973  22165631.600 -19601697.991
10 0 59173  55782.000000  0    -292039.597  20815753.847 -21049424.419
10 0 59173  56682.000000  0   -1709485.461  19471259.461 -22235492.977
10 0 59173  57582.000000  0   -3287223.141  18165119.972 -23145170.695
10 0 59173  58482.000000  0   -5005371.329  16927737.270 -23767158.345
10 0 59173  59382.000000  0   -6839140.062  15786014.434 -24093729.961
10 0 59173  60282.000000  0   -8759545.433  14762538.919 -24120828.225
10 0 59173  61182.000000  0  -10734256.589  13874903.560 -23848114.582
10 0 59173  62082.000000  0  -12728548.714  13135186.492 -23278973.501
10 0 59173  62982.000000  0  -14706332.411  12549606.170 -22420470.829
10 0 59173  63882.000000  0  -16631227.419  12118362.222 -21283266.721
10 0 59173  64782.000000  0  -18467647.298  11835667.040 -19881484.168
10 0 59173  65682.000000  0  -20181861.333  11689967.091 -18232534.666
10 0 59173  66582.000000  0  -21743000.520  11664347.037 -16356903.111
10 0 59173  67482.000000  0  -23123976.311  11737103.973 -14277894.464
10 0 59173  68382.000000  0  -24302283.423  11882473.826 -12021345.244
10 0 59173  69282.000000  0  -25260661.590  12071487.151  -9615303.337
10 0 59173  70182.000000  0  -25987595.588  12272927.484  -7089680.047
10 0 59173  71082.000000  0  -26477637.837  12454362.170  -4475878.618
10 0 59173  71982.000000  0  -26731543.461  12583213.291  -1806403.887
10 0 59173  72882.000000  0  -26756213.539  12627835.029    885542.107
10 0 59173  73782.000000  0  -26564448.333  12558563.520   3566473.498
10 0 59173  74682.000000  0  -26174518.195  12348706.186   6203037.730
10 0 59173  75582.000000  0  -25609565.650  11975439.319   8762431.200
10 0 59173  76482.000000  0  -24896857.410  11420585.614  11212808.198
10 0 59173  77382.000000  0  -24066909.844  10671247.113  13523677.920
10 0 59173  78282.000000  0  -23152515.366   9720273.549  15666284.579
10 0 59173  79182.000000  0  -22187700.354   8566551.239  17613965.843
10 0 59173  80082.000000  0  -21206647.327   7215103.369  19342485.065
10 0 59173  80982.000000  0  -20242615.237   5676998.381  20830333.174
10 0 59173  81882.000000  0  -19326891.760   3969069.205  22058996.496
10 0 59173  82782.000000  0  -18487810.458   2113452.054  23013187.137
10 0 59173  83682.000000  0  -17749863.632    136959.108  23681033.146
10 0 59173  84582.000000  0  -17132938.648  -1929695.406  24054226.096
10 0 59173  85482.000000  0  -16651701.665  -4052791.557  24128124.296
99